Hourly Data Report for November 18, 2020

L'ASSOMPTION
QUEBEC
Current Station Operator: ECCC - MSC

45°48'34.000" N
73°26'05.000" W
21.00 m
7014160
71524
WEW

Download Data

Hourly Data (November 2020)
Hourly Data Report for November 18, 2020
TIME
LST
Temp Definition
°C
Dew Point Definition
°C
Rel Hum Definition
%
Precip. Amount Definition
mm

Wind Dir Definition
10's deg

Wind Spd Definition
km/h
Visibility Definition
km
Stn Press Definition
kPa
Hmdx Definition


Wind Chill Definition


Weather Definition


00:00 -5.2 -11.5 61 0.0 33 13   102.06   -10 LegendNANA
01:00 -5.9 -11.6 64 0.0 30 10   102.16   -10 LegendNANA
02:00 -6.1 -11.7 65 0.0 29 9   102.29   -10 LegendNANA
03:00 -5.9 -11.9 63 0.0 28 8   102.37   -10 LegendNANA
04:00 -5.9 -11.6 64 0.0 29 10   102.46   -10 LegendNANA
05:00 -5.4 -12.1 59 0.0 30 11   102.57   -10 LegendNANA
06:00 -5.2 -11.4 62 0.0 28 13   102.65   -10 LegendNANA
07:00 -5.3 -11.9 60 0.0 29 15   102.74   -11 LegendNANA
08:00 -4.9 -13.9 49 0.0 28 13   102.78   -10 LegendNANA
09:00 -4.6 -13.3 51 0.0 28 13   102.87   -10 LegendNANA
10:00 -3.6 -13.1 48 0.0 29 14   102.90   -9 LegendNANA
11:00 -2.9 -13.2 45 0.0 30 13   102.90   -8 LegendNANA
12:00 -3.0 -14.8 40 0.0 31 15   102.91   -8 LegendNANA
13:00 -2.8 -14.2 41 0.0 30 11   102.92   -7 LegendNANA
14:00 -2.9 -14.4 41 0.0 28 9   102.93   -6 LegendNANA
15:00 -3.0 -13.9 43 0.0 30 10   102.98   -7 LegendNANA
16:00 -3.4 -13.3 46 0.0 31 11   103.07   -8 LegendNANA
17:00 -3.7 -13.4 47 0.0 27 11   103.09   -8 LegendNANA
18:00 -4.0 -13.3 48 0.0 26 8   103.12   -7 LegendNANA
19:00 -4.5 -13.0 52 0.0 27 5   103.12   -7 LegendNANA
20:00 -5.5 -12.9 56 0.0 27 4   103.13   -7 LegendNANA
21:00 -6.7 -13.0 61 0.0 26 4   103.15   -9 LegendNANA
22:00 -6.6 -12.5 63 0.0 23 3   103.14   -8 LegendNANA
23:00 -6.2 -11.6 66 0.0 24 3   103.14   -8 LegendNANA

Notes on Data Quality.

Legend

  • E = Estimated
  • M = Missing
  • NA = Not Available*
  • [empty] = Indicates an unobserved value
Date modified: